Year,Month,Day,Hour,Minute,Value (Times are PST for windgust in km/hr)
2015,08,29,00,00,4.80
2015,08,29,00,01,4.80
2015,08,29,00,02,6.40
2015,08,29,00,03,8.10
2015,08,29,00,04,8.10
2015,08,29,00,05,6.40
2015,08,29,00,06,8.10
2015,08,29,00,07,11.30
2015,08,29,00,08,6.40
2015,08,29,00,09,8.10
2015,08,29,00,10,8.10
2015,08,29,00,11,8.10
2015,08,29,00,12,6.40
2015,08,29,00,13,6.40
2015,08,29,00,14,9.60
2015,08,29,00,15,12.90
2015,08,29,00,16,9.60
2015,08,29,00,17,9.60
2015,08,29,00,18,8.10
2015,08,29,00,19,8.10
2015,08,29,00,20,11.30
2015,08,29,00,21,12.90
2015,08,29,00,22,11.30
2015,08,29,00,23,11.30
2015,08,29,00,24,11.30
2015,08,29,00,25,6.40
2015,08,29,00,26,4.80
2015,08,29,00,27,6.40
2015,08,29,00,28,8.10
2015,08,29,00,29,9.60
2015,08,29,00,30,16.10
2015,08,29,00,31,14.50
2015,08,29,00,32,11.30
2015,08,29,00,33,9.60
2015,08,29,00,34,9.60
2015,08,29,00,35,14.50
2015,08,29,00,36,8.10
2015,08,29,00,37,8.10
2015,08,29,00,38,8.10
2015,08,29,00,39,6.40
2015,08,29,00,40,4.80
2015,08,29,00,41,6.40
2015,08,29,00,42,8.10
2015,08,29,00,43,8.10
2015,08,29,00,44,4.80
2015,08,29,00,45,6.40
2015,08,29,00,46,9.60
2015,08,29,00,47,9.60
2015,08,29,00,48,9.60
2015,08,29,00,49,11.30
2015,08,29,00,50,9.60
2015,08,29,00,51,9.60
2015,08,29,00,52,11.30
2015,08,29,00,53,8.10
2015,08,29,00,54,8.10
2015,08,29,00,55,9.60
2015,08,29,00,56,8.10
2015,08,29,00,57,8.10
2015,08,29,00,58,8.10
2015,08,29,00,59,11.30
2015,08,29,01,00,11.30
2015,08,29,01,01,11.30
2015,08,29,01,02,14.50
2015,08,29,01,03,9.60
2015,08,29,01,04,9.60
2015,08,29,01,05,8.10
2015,08,29,01,06,9.60
2015,08,29,01,07,8.10
2015,08,29,01,08,8.10
2015,08,29,01,09,11.30
2015,08,29,01,10,11.30
2015,08,29,01,11,12.90
2015,08,29,01,12,14.50
2015,08,29,01,13,8.10
2015,08,29,01,14,8.10
2015,08,29,01,15,11.30
2015,08,29,01,16,8.10
2015,08,29,01,17,9.60
2015,08,29,01,18,11.30
2015,08,29,01,19,11.30
2015,08,29,01,20,9.60
2015,08,29,01,21,11.30
2015,08,29,01,22,14.50
2015,08,29,01,23,16.10
2015,08,29,01,24,14.50
2015,08,29,01,25,11.30
2015,08,29,01,26,11.30
2015,08,29,01,27,17.70
2015,08,29,01,28,16.10
2015,08,29,01,29,11.30
2015,08,29,01,30,9.60
2015,08,29,01,31,11.30
2015,08,29,01,32,16.10
2015,08,29,01,33,9.60
2015,08,29,01,34,17.70
2015,08,29,01,35,12.90
2015,08,29,01,36,9.60
2015,08,29,01,37,11.30
2015,08,29,01,38,11.30
2015,08,29,01,39,9.60
2015,08,29,01,40,14.50
2015,08,29,01,41,14.50
2015,08,29,01,42,11.30
2015,08,29,01,43,9.60
2015,08,29,01,44,9.60
2015,08,29,01,45,9.60
2015,08,29,01,46,8.10
2015,08,29,01,47,8.10
2015,08,29,01,48,8.10
2015,08,29,01,49,6.40
2015,08,29,01,50,8.10
2015,08,29,01,51,8.10
2015,08,29,01,52,3.20
2015,08,29,01,53,11.30
2015,08,29,01,54,11.30
2015,08,29,01,55,8.10
2015,08,29,01,56,6.40
2015,08,29,01,57,6.40
2015,08,29,01,58,11.30
2015,08,29,01,59,9.60
2015,08,29,02,00,9.60
2015,08,29,02,01,6.40
2015,08,29,02,02,4.80
2015,08,29,02,03,3.20
2015,08,29,02,04,4.80
2015,08,29,02,05,6.40
2015,08,29,02,06,6.40
2015,08,29,02,07,9.60
2015,08,29,02,08,6.40
2015,08,29,02,09,8.10
2015,08,29,02,10,11.30
2015,08,29,02,11,8.10
2015,08,29,02,12,9.60
2015,08,29,02,13,11.30
2015,08,29,02,14,9.60
2015,08,29,02,15,11.30
2015,08,29,02,16,9.60
2015,08,29,02,17,11.30
2015,08,29,02,18,6.40
2015,08,29,02,19,8.10
2015,08,29,02,20,6.40
2015,08,29,02,21,11.30
2015,08,29,02,22,9.60
2015,08,29,02,23,12.90
2015,08,29,02,24,11.30
2015,08,29,02,25,9.60
2015,08,29,02,26,11.30
2015,08,29,02,27,9.60
2015,08,29,02,28,16.10
2015,08,29,02,29,17.70
2015,08,29,02,30,16.10
2015,08,29,02,31,17.70
2015,08,29,02,32,19.30
2015,08,29,02,33,17.70
2015,08,29,02,34,20.90
2015,08,29,02,35,19.30
2015,08,29,02,36,19.30
2015,08,29,02,37,19.30
2015,08,29,02,38,16.10
2015,08,29,02,39,9.60
2015,08,29,02,40,11.30
2015,08,29,02,41,14.50
2015,08,29,02,42,12.90
2015,08,29,02,43,22.50
2015,08,29,02,44,17.70
2015,08,29,02,45,16.10
2015,08,29,02,46,17.70
2015,08,29,02,47,14.50
2015,08,29,02,48,16.10
2015,08,29,02,49,16.10
2015,08,29,02,50,16.10
2015,08,29,02,51,19.30
2015,08,29,02,52,16.10
2015,08,29,02,53,14.50
2015,08,29,02,54,14.50
2015,08,29,02,55,12.90
2015,08,29,02,56,17.70
2015,08,29,02,57,20.90
2015,08,29,02,58,19.30
2015,08,29,02,59,25.70
2015,08,29,03,00,17.70
2015,08,29,03,01,20.90
2015,08,29,03,02,16.10
2015,08,29,03,03,19.30
2015,08,29,03,04,11.30
2015,08,29,03,05,14.50
2015,08,29,03,06,9.60
2015,08,29,03,07,14.50
2015,08,29,03,08,11.30
2015,08,29,03,09,14.50
2015,08,29,03,10,16.10
2015,08,29,03,11,11.30
2015,08,29,03,12,16.10
2015,08,29,03,13,14.50
2015,08,29,03,14,19.30
2015,08,29,03,15,16.10
2015,08,29,03,16,14.50
2015,08,29,03,17,11.30
2015,08,29,03,18,17.70
2015,08,29,03,19,17.70
2015,08,29,03,20,9.60
2015,08,29,03,21,17.70
2015,08,29,03,22,16.10
2015,08,29,03,23,12.90
2015,08,29,03,24,17.70
2015,08,29,03,25,9.60
2015,08,29,03,26,16.10
2015,08,29,03,27,11.30
2015,08,29,03,28,11.30
2015,08,29,03,29,11.30
2015,08,29,03,30,17.70
2015,08,29,03,31,16.10
2015,08,29,03,32,17.70
2015,08,29,03,33,16.10
2015,08,29,03,34,16.10
2015,08,29,03,35,17.70
2015,08,29,03,36,19.30
2015,08,29,03,37,17.70
2015,08,29,03,38,16.10
2015,08,29,03,39,12.90
2015,08,29,03,40,16.10
2015,08,29,03,41,22.50
2015,08,29,03,42,24.20
2015,08,29,03,43,20.90
2015,08,29,03,44,20.90
2015,08,29,03,45,11.30
2015,08,29,03,46,16.10
2015,08,29,03,47,11.30
2015,08,29,03,48,11.30
2015,08,29,03,49,19.30
2015,08,29,03,50,11.30
2015,08,29,03,51,16.10
2015,08,29,03,52,14.50
2015,08,29,03,53,16.10
2015,08,29,03,54,17.70
2015,08,29,03,55,16.10
2015,08,29,03,56,17.70
2015,08,29,03,57,16.10
2015,08,29,03,58,19.30
2015,08,29,03,59,14.50
2015,08,29,04,00,22.50
2015,08,29,04,01,17.70
2015,08,29,04,02,16.10
2015,08,29,04,03,19.30
2015,08,29,04,04,19.30
2015,08,29,04,05,16.10
2015,08,29,04,06,19.30
2015,08,29,04,07,16.10
2015,08,29,04,08,16.10
2015,08,29,04,09,22.50
2015,08,29,04,10,19.30
2015,08,29,04,11,16.10
2015,08,29,04,12,16.10
2015,08,29,04,13,16.10
2015,08,29,04,14,17.70
2015,08,29,04,15,11.30
2015,08,29,04,16,16.10
2015,08,29,04,17,16.10
2015,08,29,04,18,14.50
2015,08,29,04,19,11.30
2015,08,29,04,20,16.10
2015,08,29,04,21,16.10
2015,08,29,04,22,11.30
2015,08,29,04,23,11.30
2015,08,29,04,24,11.30
2015,08,29,04,25,14.50
2015,08,29,04,26,12.90
2015,08,29,04,27,16.10
2015,08,29,04,28,16.10
2015,08,29,04,29,11.30
2015,08,29,04,30,16.10
2015,08,29,04,31,24.20
2015,08,29,04,32,17.70
2015,08,29,04,33,16.10
2015,08,29,04,34,20.90
2015,08,29,04,35,16.10
2015,08,29,04,36,14.50
2015,08,29,04,37,16.10
2015,08,29,04,38,14.50
2015,08,29,04,39,17.70
2015,08,29,04,40,22.50
2015,08,29,04,41,17.70
2015,08,29,04,42,17.70
2015,08,29,04,43,17.70
2015,08,29,04,44,16.10
2015,08,29,04,45,19.30
2015,08,29,04,46,19.30
2015,08,29,04,47,17.70
2015,08,29,04,48,19.30
2015,08,29,04,49,16.10
2015,08,29,04,50,16.10
2015,08,29,04,51,16.10
2015,08,29,04,52,16.10
2015,08,29,04,53,19.30
2015,08,29,04,54,19.30
2015,08,29,04,55,17.70
2015,08,29,04,56,11.30
2015,08,29,04,57,16.10
2015,08,29,04,58,16.10
2015,08,29,04,59,17.70
2015,08,29,05,00,20.90
2015,08,29,05,01,19.30
2015,08,29,05,02,17.70
2015,08,29,05,03,17.70
2015,08,29,05,04,14.50
2015,08,29,05,05,8.10
2015,08,29,05,06,17.70
2015,08,29,05,07,16.10
2015,08,29,05,08,17.70
2015,08,29,05,09,22.50
2015,08,29,05,10,17.70
2015,08,29,05,11,12.90
2015,08,29,05,12,19.30
2015,08,29,05,13,20.90
2015,08,29,05,14,11.30
2015,08,29,05,15,14.50
2015,08,29,05,16,14.50
2015,08,29,05,17,11.30
2015,08,29,05,18,8.10
2015,08,29,05,19,17.70
2015,08,29,05,20,14.50
2015,08,29,05,21,16.10
2015,08,29,05,22,14.50
2015,08,29,05,23,9.60
2015,08,29,05,24,8.10
2015,08,29,05,25,9.60
2015,08,29,05,26,11.30
2015,08,29,05,27,11.30
2015,08,29,05,28,9.60
2015,08,29,05,29,9.60
2015,08,29,05,30,1.60
2015,08,29,05,31,4.80
2015,08,29,05,32,6.40
2015,08,29,05,33,8.10
2015,08,29,05,34,9.60
2015,08,29,05,35,9.60
2015,08,29,05,36,9.60
2015,08,29,05,37,9.60
2015,08,29,05,38,8.10
2015,08,29,05,39,9.60
2015,08,29,05,40,6.40
2015,08,29,05,41,8.10
2015,08,29,05,42,8.10
2015,08,29,05,43,4.80
2015,08,29,05,44,8.10
2015,08,29,05,45,16.10
2015,08,29,05,46,19.30
2015,08,29,05,47,19.30
2015,08,29,05,48,27.40
2015,08,29,05,49,24.20
2015,08,29,05,50,19.30
2015,08,29,05,51,19.30
2015,08,29,05,52,16.10
2015,08,29,05,53,6.40
2015,08,29,05,54,1.60
2015,08,29,05,55,3.20
2015,08,29,06,00,3.20
2015,08,29,06,01,4.80
2015,08,29,06,02,4.80
2015,08,29,06,03,4.80
2015,08,29,06,04,4.80
2015,08,29,06,05,3.20
2015,08,29,06,06,4.80
2015,08,29,06,07,6.40
2015,08,29,06,08,6.40
2015,08,29,06,09,6.40
2015,08,29,06,10,4.80
2015,08,29,06,11,6.40
2015,08,29,06,12,4.80
2015,08,29,06,13,4.80
2015,08,29,06,14,4.80
2015,08,29,06,15,3.20
2015,08,29,06,16,4.80
2015,08,29,06,17,6.40
2015,08,29,06,18,8.10
2015,08,29,06,19,9.60
2015,08,29,06,20,8.10
2015,08,29,06,21,6.40
2015,08,29,06,22,8.10
2015,08,29,06,23,6.40
2015,08,29,06,24,6.40
2015,08,29,06,25,8.10
2015,08,29,06,26,11.30
2015,08,29,06,27,9.60
2015,08,29,06,28,9.60
2015,08,29,06,29,8.10
2015,08,29,06,30,6.40
2015,08,29,06,31,8.10
2015,08,29,06,32,8.10
2015,08,29,06,33,8.10
2015,08,29,06,34,8.10
2015,08,29,06,35,9.60
2015,08,29,06,36,9.60
2015,08,29,06,37,9.60
2015,08,29,06,38,16.10
2015,08,29,06,39,16.10
2015,08,29,06,40,17.70
2015,08,29,06,41,14.50
2015,08,29,06,42,11.30
2015,08,29,06,43,11.30
2015,08,29,06,44,16.10
2015,08,29,06,45,14.50
2015,08,29,06,46,11.30
2015,08,29,06,47,17.70
2015,08,29,06,48,19.30
2015,08,29,06,49,16.10
2015,08,29,06,50,14.50
2015,08,29,06,51,12.90
2015,08,29,06,52,17.70
2015,08,29,06,53,16.10
2015,08,29,06,54,19.30
2015,08,29,06,55,17.70
2015,08,29,06,56,22.50
2015,08,29,06,57,17.70
2015,08,29,06,58,16.10
2015,08,29,06,59,16.10
2015,08,29,07,00,19.30
2015,08,29,07,01,19.30
2015,08,29,07,02,19.30
2015,08,29,07,03,22.50
2015,08,29,07,04,22.50
2015,08,29,07,05,25.70
2015,08,29,07,06,19.30
2015,08,29,07,07,16.10
2015,08,29,07,08,11.30
2015,08,29,07,09,20.90
2015,08,29,07,10,22.50
2015,08,29,07,11,19.30
2015,08,29,07,12,22.50
2015,08,29,07,13,20.90
2015,08,29,07,14,19.30
2015,08,29,07,15,14.50
2015,08,29,07,16,11.30
2015,08,29,07,17,14.50
2015,08,29,07,18,9.60
2015,08,29,07,19,20.90
2015,08,29,07,20,22.50
2015,08,29,07,21,19.30
2015,08,29,07,22,20.90
2015,08,29,07,23,27.40
2015,08,29,07,24,19.30
2015,08,29,07,25,11.30
2015,08,29,07,26,22.50
2015,08,29,07,27,22.50
2015,08,29,07,28,20.90
2015,08,29,07,29,17.70
2015,08,29,07,30,20.90
2015,08,29,07,31,16.10
2015,08,29,07,32,11.30
2015,08,29,07,33,17.70
2015,08,29,07,34,8.10
2015,08,29,07,35,9.60
2015,08,29,07,36,8.10
2015,08,29,07,37,11.30
2015,08,29,07,38,16.10
2015,08,29,07,39,17.70
2015,08,29,07,40,14.50
2015,08,29,07,41,16.10
2015,08,29,07,42,16.10
2015,08,29,07,43,8.10
2015,08,29,07,44,11.30
2015,08,29,07,45,8.10
2015,08,29,07,46,16.10
2015,08,29,07,47,16.10
2015,08,29,07,48,17.70
2015,08,29,07,49,16.10
2015,08,29,07,50,11.30
2015,08,29,07,51,14.50
2015,08,29,07,52,19.30
2015,08,29,07,53,16.10
2015,08,29,07,54,14.50
2015,08,29,07,55,14.50
2015,08,29,07,56,14.50
2015,08,29,07,57,1.60
2015,08,29,07,58,8.10
2015,08,29,07,59,8.10
2015,08,29,08,00,4.80
2015,08,29,08,01,9.60
2015,08,29,08,02,8.10
2015,08,29,08,03,8.10
2015,08,29,08,04,6.40
2015,08,29,08,05,6.40
2015,08,29,08,06,1.60
2015,08,29,08,09,3.20
2015,08,29,08,11,9.60
2015,08,29,08,12,11.30
2015,08,29,08,13,6.40
2015,08,29,08,14,8.10
2015,08,29,08,15,16.10
2015,08,29,08,16,11.30
2015,08,29,08,17,11.30
2015,08,29,08,18,16.10
2015,08,29,08,19,16.10
2015,08,29,08,20,17.70
2015,08,29,08,21,17.70
2015,08,29,08,22,11.30
2015,08,29,08,23,9.60
2015,08,29,08,24,11.30
2015,08,29,08,25,11.30
2015,08,29,08,26,17.70
2015,08,29,08,27,11.30
2015,08,29,08,28,11.30
2015,08,29,08,29,16.10
2015,08,29,08,30,17.70
2015,08,29,08,31,16.10
2015,08,29,08,32,17.70
2015,08,29,08,33,14.50
2015,08,29,08,34,12.90
2015,08,29,08,35,16.10
2015,08,29,08,36,8.10
2015,08,29,08,37,9.60
2015,08,29,08,38,16.10
2015,08,29,08,39,14.50
2015,08,29,08,40,16.10
2015,08,29,08,41,16.10
2015,08,29,08,42,12.90
2015,08,29,08,43,9.60
2015,08,29,08,44,6.40
2015,08,29,08,45,19.30
2015,08,29,08,46,19.30
2015,08,29,08,47,9.60
2015,08,29,08,48,9.60
2015,08,29,08,49,11.30
2015,08,29,08,50,16.10
2015,08,29,08,51,16.10
2015,08,29,08,52,16.10
2015,08,29,08,53,11.30
2015,08,29,08,54,9.60
2015,08,29,08,55,6.40
2015,08,29,08,58,6.40
2015,08,29,08,59,12.90
2015,08,29,09,00,11.30
2015,08,29,09,01,8.10
2015,08,29,09,02,16.10
2015,08,29,09,03,11.30
2015,08,29,09,04,16.10
2015,08,29,09,05,17.70
2015,08,29,09,06,12.90
2015,08,29,09,07,14.50
2015,08,29,09,08,8.10
2015,08,29,09,09,8.10
2015,08,29,09,10,11.30
2015,08,29,09,11,19.30
2015,08,29,09,12,14.50
2015,08,29,09,13,14.50
2015,08,29,09,14,12.90
2015,08,29,09,15,16.10
2015,08,29,09,16,9.60
2015,08,29,09,17,16.10
2015,08,29,09,18,12.90
2015,08,29,09,19,6.40
2015,08,29,09,20,8.10
2015,08,29,09,21,4.80
2015,08,29,09,22,6.40
2015,08,29,09,23,8.10
2015,08,29,09,24,16.10
2015,08,29,09,25,14.50
2015,08,29,09,26,9.60
2015,08,29,09,27,8.10
2015,08,29,09,28,8.10
2015,08,29,09,29,11.30
2015,08,29,09,30,9.60
2015,08,29,09,31,11.30
2015,08,29,09,32,9.60
2015,08,29,09,33,8.10
2015,08,29,09,34,12.90
2015,08,29,09,35,14.50
2015,08,29,09,36,8.10
2015,08,29,09,37,20.90
2015,08,29,09,38,22.50
2015,08,29,09,39,25.70
2015,08,29,09,40,20.90
2015,08,29,09,41,20.90
2015,08,29,09,42,22.50
2015,08,29,09,43,24.20
2015,08,29,09,44,14.50
2015,08,29,09,45,32.20
2015,08,29,09,46,29.00
2015,08,29,09,47,27.40
2015,08,29,09,48,33.80
2015,08,29,09,49,32.20
2015,08,29,09,50,27.40
2015,08,29,09,51,27.40
2015,08,29,09,52,24.20
2015,08,29,09,53,22.50
2015,08,29,09,54,27.40
2015,08,29,09,55,37.00
2015,08,29,09,56,33.80
2015,08,29,09,57,30.60
2015,08,29,09,58,32.20
2015,08,29,09,59,40.20
2015,08,29,10,00,32.20
2015,08,29,10,01,25.70
2015,08,29,10,02,32.20
2015,08,29,10,03,37.00
2015,08,29,10,04,30.60
2015,08,29,10,05,30.60
2015,08,29,10,06,35.40
2015,08,29,10,07,38.60
2015,08,29,10,08,33.80
2015,08,29,10,09,27.40
2015,08,29,10,10,41.80
2015,08,29,10,11,37.00
2015,08,29,10,12,35.40
2015,08,29,10,13,38.60
2015,08,29,10,14,30.60
2015,08,29,10,15,24.20
2015,08,29,10,16,35.40
2015,08,29,10,17,25.70
2015,08,29,10,18,24.20
2015,08,29,10,19,35.40
2015,08,29,10,20,32.20
2015,08,29,10,21,17.70
2015,08,29,10,22,25.70
2015,08,29,10,23,35.40
2015,08,29,10,24,30.60
2015,08,29,10,25,29.00
2015,08,29,10,26,24.20
2015,08,29,10,27,27.40
2015,08,29,10,28,25.70
2015,08,29,10,29,27.40
2015,08,29,10,30,33.80
2015,08,29,10,31,35.40
2015,08,29,10,32,40.20
2015,08,29,10,33,41.80
2015,08,29,10,34,30.60
2015,08,29,10,35,33.80
2015,08,29,10,36,27.40
2015,08,29,10,37,35.40
2015,08,29,10,38,20.90
2015,08,29,10,39,30.60
2015,08,29,10,40,38.60
2015,08,29,10,41,40.20
2015,08,29,10,42,33.80
2015,08,29,10,43,29.00
2015,08,29,10,44,33.80
2015,08,29,10,45,37.00
2015,08,29,10,46,46.70
2015,08,29,10,47,53.10
2015,08,29,10,48,48.30
2015,08,29,10,49,48.30
2015,08,29,10,50,41.80
2015,08,29,10,51,46.70
2015,08,29,10,52,48.30
2015,08,29,10,53,41.80
2015,08,29,10,54,37.00
2015,08,29,10,55,35.40
2015,08,29,10,56,27.40
2015,08,29,10,57,43.50
2015,08,29,10,58,43.50
2015,08,29,10,59,41.80
2015,08,29,11,00,37.00
2015,08,29,11,01,37.00
2015,08,29,11,02,38.60
2015,08,29,11,03,30.60
2015,08,29,11,04,38.60
2015,08,29,11,05,38.60
2015,08,29,11,06,46.70
2015,08,29,11,07,32.20
2015,08,29,11,08,33.80
2015,08,29,11,09,41.80
2015,08,29,11,10,45.10
2015,08,29,11,11,49.90
2015,08,29,11,12,48.30
2015,08,29,11,13,46.70
2015,08,29,11,14,46.70
2015,08,29,11,15,49.90
2015,08,29,11,16,48.30
2015,08,29,11,17,43.50
2015,08,29,11,18,38.60
2015,08,29,11,19,43.50
2015,08,29,11,20,38.60
2015,08,29,11,21,45.10
2015,08,29,11,22,45.10
2015,08,29,11,23,43.50
2015,08,29,11,24,40.20
2015,08,29,11,25,46.70
2015,08,29,11,26,40.20
2015,08,29,11,27,35.40
2015,08,29,11,28,49.90
2015,08,29,11,29,45.10
2015,08,29,11,30,33.80
2015,08,29,11,31,30.60
2015,08,29,11,32,35.40
2015,08,29,11,33,27.40
2015,08,29,11,34,33.80
2015,08,29,11,35,29.00
2015,08,29,11,36,25.70
2015,08,29,11,37,32.20
2015,08,29,11,38,30.60
2015,08,29,11,39,30.60
2015,08,29,11,40,25.70
2015,08,29,11,41,29.00
2015,08,29,11,42,32.20
2015,08,29,11,43,40.20
2015,08,29,11,44,27.40
2015,08,29,11,45,37.00
2015,08,29,11,46,27.40
2015,08,29,11,47,30.60
2015,08,29,11,48,25.70
2015,08,29,11,49,33.80
2015,08,29,11,50,29.00
2015,08,29,11,51,33.80
2015,08,29,11,52,24.20
2015,08,29,11,53,30.60
2015,08,29,11,54,19.30
2015,08,29,11,55,19.30
2015,08,29,11,56,19.30
2015,08,29,11,57,11.30
2015,08,29,11,58,17.70
2015,08,29,11,59,20.90
2015,08,29,12,00,17.70
2015,08,29,12,01,11.30
2015,08,29,12,02,11.30
2015,08,29,12,03,11.30
2015,08,29,12,04,8.10
2015,08,29,12,05,8.10
2015,08,29,12,06,6.40
2015,08,29,12,07,11.30
2015,08,29,12,08,17.70
2015,08,29,12,09,9.60
2015,08,29,12,10,12.90
2015,08,29,12,11,6.40
2015,08,29,12,12,3.20
2015,08,29,12,13,4.80
2015,08,29,12,14,8.10
2015,08,29,12,15,6.40
2015,08,29,12,16,9.60
2015,08,29,12,18,4.80
2015,08,29,12,19,3.20
2015,08,29,12,21,3.20
2015,08,29,12,22,4.80
2015,08,29,12,23,6.40
2015,08,29,12,24,6.40
2015,08,29,12,25,6.40
2015,08,29,12,26,8.10
2015,08,29,12,27,4.80
2015,08,29,12,28,6.40
2015,08,29,12,29,8.10
2015,08,29,12,30,8.10
2015,08,29,12,31,8.10
2015,08,29,12,32,4.80
2015,08,29,12,33,9.60
2015,08,29,12,34,4.80
2015,08,29,12,35,3.20
2015,08,29,12,36,4.80
2015,08,29,12,37,4.80
2015,08,29,12,38,3.20
2015,08,29,12,40,4.80
2015,08,29,12,41,9.60
2015,08,29,12,42,16.10
2015,08,29,12,43,6.40
2015,08,29,12,44,3.20
2015,08,29,12,46,8.10
2015,08,29,12,47,17.70
2015,08,29,12,48,16.10
2015,08,29,12,49,16.10
2015,08,29,12,50,24.20
2015,08,29,12,51,4.80
2015,08,29,12,52,6.40
2015,08,29,12,53,1.60
2015,08,29,12,55,6.40
2015,08,29,12,56,6.40
2015,08,29,12,57,6.40
2015,08,29,12,58,8.10
2015,08,29,12,59,11.30
2015,08,29,13,00,17.70
2015,08,29,13,01,11.30
2015,08,29,13,02,3.20
2015,08,29,13,03,11.30
2015,08,29,13,04,14.50
2015,08,29,13,05,8.10
2015,08,29,13,06,11.30
2015,08,29,13,07,16.10
2015,08,29,13,08,9.60
2015,08,29,13,10,8.10
2015,08,29,13,11,6.40
2015,08,29,13,12,9.60
2015,08,29,13,13,8.10
2015,08,29,13,14,6.40
2015,08,29,13,15,14.50
2015,08,29,13,16,17.70
2015,08,29,13,17,17.70
2015,08,29,13,18,8.10
2015,08,29,13,19,1.60
2015,08,29,13,20,6.40
2015,08,29,13,21,11.30
2015,08,29,13,22,16.10
2015,08,29,13,23,8.10
2015,08,29,13,24,8.10
2015,08,29,13,25,14.50
2015,08,29,13,26,9.60
2015,08,29,13,27,8.10
2015,08,29,13,28,6.40
2015,08,29,13,29,9.60
2015,08,29,13,30,8.10
2015,08,29,13,31,8.10
2015,08,29,13,32,8.10
2015,08,29,13,33,4.80
2015,08,29,13,34,6.40
2015,08,29,13,35,8.10
2015,08,29,13,36,11.30
2015,08,29,13,37,9.60
2015,08,29,13,38,9.60
2015,08,29,13,39,8.10
2015,08,29,13,40,4.80
2015,08,29,13,41,4.80
2015,08,29,13,42,8.10
2015,08,29,13,43,6.40
2015,08,29,13,44,4.80
2015,08,29,13,46,9.60
2015,08,29,13,47,4.80
2015,08,29,13,48,9.60
2015,08,29,13,49,11.30
2015,08,29,13,50,11.30
2015,08,29,13,51,33.80
2015,08,29,13,52,30.60
2015,08,29,13,53,30.60
2015,08,29,13,54,19.30
2015,08,29,13,55,33.80
2015,08,29,13,56,25.70
2015,08,29,13,57,32.20
2015,08,29,13,58,32.20
2015,08,29,13,59,20.90
2015,08,29,14,00,27.40
2015,08,29,14,01,53.10
2015,08,29,14,02,38.60
2015,08,29,14,03,32.20
2015,08,29,14,04,41.80
2015,08,29,14,05,37.00
2015,08,29,14,06,32.20
2015,08,29,14,07,51.50
2015,08,29,14,08,41.80
2015,08,29,14,09,40.20
2015,08,29,14,10,38.60
2015,08,29,14,11,29.00
2015,08,29,14,12,32.20
2015,08,29,14,13,25.70
2015,08,29,14,14,29.00
2015,08,29,14,15,38.60
2015,08,29,14,16,45.10
2015,08,29,14,17,43.50
2015,08,29,14,18,25.70
2015,08,29,14,19,51.50
2015,08,29,14,20,33.80
2015,08,29,14,21,41.80
2015,08,29,14,22,35.40
2015,08,29,14,23,43.50
2015,08,29,14,24,53.10
2015,08,29,14,25,43.50
2015,08,29,14,26,35.40
2015,08,29,14,27,45.10
2015,08,29,14,28,59.50
2015,08,29,14,29,48.30
2015,08,29,14,30,48.30
2015,08,29,14,31,48.30
2015,08,29,14,32,41.80
2015,08,29,14,33,38.60
2015,08,29,14,34,38.60
2015,08,29,14,35,41.80
2015,08,29,14,36,32.20
2015,08,29,14,37,32.20
2015,08,29,14,38,48.30
2015,08,29,14,39,33.80
2015,08,29,14,40,37.00
2015,08,29,14,41,46.70
2015,08,29,14,42,40.20
2015,08,29,14,43,37.00
2015,08,29,14,44,45.10
2015,08,29,14,45,29.00
2015,08,29,14,46,32.20
2015,08,29,14,47,32.20
2015,08,29,14,48,25.70
2015,08,29,14,49,29.00
2015,08,29,14,50,27.40
2015,08,29,14,51,33.80
2015,08,29,14,52,40.20
2015,08,29,14,53,40.20
2015,08,29,14,54,32.20
2015,08,29,14,55,24.20
2015,08,29,14,56,27.40
2015,08,29,14,57,33.80
2015,08,29,14,58,33.80
2015,08,29,14,59,29.00
2015,08,29,15,00,30.60
2015,08,29,15,01,30.60
2015,08,29,15,02,17.70
2015,08,29,15,03,9.60
2015,08,29,15,04,24.20
2015,08,29,15,05,25.70
2015,08,29,15,06,17.70
2015,08,29,15,07,25.70
2015,08,29,15,08,25.70
2015,08,29,15,09,22.50
2015,08,29,15,10,11.30
2015,08,29,15,11,11.30
2015,08,29,15,12,27.40
2015,08,29,15,13,27.40
2015,08,29,15,14,25.70
2015,08,29,15,15,25.70
2015,08,29,15,16,20.90
2015,08,29,15,17,24.20
2015,08,29,15,18,20.90
2015,08,29,15,19,20.90
2015,08,29,15,20,29.00
2015,08,29,15,21,37.00
2015,08,29,15,22,32.20
2015,08,29,15,23,29.00
2015,08,29,15,24,30.60
2015,08,29,15,25,24.20
2015,08,29,15,26,20.90
2015,08,29,15,27,25.70
2015,08,29,15,28,22.50
2015,08,29,15,29,32.20
2015,08,29,15,30,27.40
2015,08,29,15,31,17.70
2015,08,29,15,32,12.90
2015,08,29,15,33,19.30
2015,08,29,15,34,29.00
2015,08,29,15,35,25.70
2015,08,29,15,36,16.10
2015,08,29,15,37,29.00
2015,08,29,15,38,19.30
2015,08,29,15,39,14.50
2015,08,29,15,40,17.70
2015,08,29,15,41,20.90
2015,08,29,15,42,19.30
2015,08,29,15,43,19.30
2015,08,29,15,44,11.30
2015,08,29,15,45,20.90
2015,08,29,15,46,20.90
2015,08,29,15,47,24.20
2015,08,29,15,48,20.90
2015,08,29,15,49,20.90
2015,08,29,15,50,20.90
2015,08,29,15,51,17.70
2015,08,29,15,52,16.10
2015,08,29,15,53,22.50
2015,08,29,15,54,16.10
2015,08,29,15,55,11.30
2015,08,29,15,56,17.70
2015,08,29,15,57,17.70
2015,08,29,15,58,16.10
2015,08,29,15,59,17.70
2015,08,29,16,00,9.60
2015,08,29,16,01,16.10
2015,08,29,16,02,11.30
2015,08,29,16,03,11.30
2015,08,29,16,04,9.60
2015,08,29,16,05,3.20
2015,08,29,16,06,3.20
2015,08,29,16,07,9.60
2015,08,29,16,08,11.30
2015,08,29,16,09,8.10
2015,08,29,16,10,14.50
2015,08,29,16,11,9.60
2015,08,29,16,12,6.40
2015,08,29,16,13,3.20
2015,08,29,16,14,16.10
2015,08,29,16,15,20.90
2015,08,29,16,16,19.30
2015,08,29,16,17,14.50
2015,08,29,16,18,20.90
2015,08,29,16,19,16.10
2015,08,29,16,20,16.10
2015,08,29,16,21,11.30
2015,08,29,16,22,9.60
2015,08,29,16,23,17.70
2015,08,29,16,24,11.30
2015,08,29,16,25,3.20
2015,08,29,16,26,3.20
2015,08,29,16,27,4.80
2015,08,29,16,28,6.40
2015,08,29,16,29,3.20
2015,08,29,16,30,4.80
2015,08,29,16,31,8.10
2015,08,29,16,32,8.10
2015,08,29,16,33,1.60
2015,08,29,16,34,8.10
2015,08,29,16,35,6.40
2015,08,29,16,36,4.80
2015,08,29,16,37,8.10
2015,08,29,16,38,4.80
2015,08,29,16,39,4.80
2015,08,29,16,40,1.60
2015,08,29,16,41,3.20
2015,08,29,16,42,4.80
2015,08,29,16,43,1.60
2015,08,29,16,44,4.80
2015,08,29,16,45,1.60
2015,08,29,16,47,4.80
2015,08,29,16,48,3.20
2015,08,29,16,49,4.80
2015,08,29,16,50,3.20
2015,08,29,16,51,4.80
2015,08,29,16,52,3.20
2015,08,29,16,53,6.40
2015,08,29,16,54,4.80
2015,08,29,16,55,3.20
2015,08,29,16,58,4.80
2015,08,29,16,59,3.20
2015,08,29,17,00,3.20
2015,08,29,17,01,1.60
2015,08,29,17,05,1.60
2015,08,29,17,14,3.20
2015,08,29,17,29,3.20
2015,08,29,17,30,1.60
2015,08,29,17,33,1.60
2015,08,29,17,34,3.20
2015,08,29,17,35,3.20
2015,08,29,17,36,3.20
2015,08,29,17,41,3.20
2015,08,29,17,42,4.80
2015,08,29,17,43,6.40
2015,08,29,17,44,8.10
2015,08,29,17,45,8.10
2015,08,29,17,46,6.40
2015,08,29,17,47,6.40
2015,08,29,17,48,6.40
2015,08,29,17,49,8.10
2015,08,29,17,50,6.40
2015,08,29,17,51,4.80
2015,08,29,17,52,1.60
2015,08,29,17,53,4.80
2015,08,29,17,54,4.80
2015,08,29,17,55,3.20
2015,08,29,17,56,8.10
2015,08,29,17,57,4.80
2015,08,29,17,58,1.60
2015,08,29,17,59,9.60
2015,08,29,18,00,8.10
2015,08,29,18,01,8.10
2015,08,29,18,02,8.10
2015,08,29,18,03,6.40
2015,08,29,18,04,11.30
2015,08,29,18,05,4.80
2015,08,29,18,06,11.30
2015,08,29,18,07,9.60
2015,08,29,18,08,6.40
2015,08,29,18,09,3.20
2015,08,29,18,10,9.60
2015,08,29,18,11,4.80
2015,08,29,18,12,12.90
2015,08,29,18,13,14.50
2015,08,29,18,14,11.30
2015,08,29,18,15,4.80
2015,08,29,18,16,8.10
2015,08,29,18,17,8.10
2015,08,29,18,18,14.50
2015,08,29,18,19,14.50
2015,08,29,18,20,9.60
2015,08,29,18,21,9.60
2015,08,29,18,22,11.30
2015,08,29,18,23,8.10
2015,08,29,18,24,11.30
2015,08,29,18,25,19.30